Voltar ao catálogo

PRISMA

TANGO

AtivoCiênciaSSO
NORAD 36827·PAYLOAD·🇸🇪 Sweden

Lançado Jun 15, 2010 de Dombarovsky

Loading…

Próximas Passagens (próximas 24 horas)

TLE

AtualizadoSource: Space-Track

Época: Sep 13, 2026, 23:41 UTC

1 36827U 10028F   26256.98704894  .00000194  00000-0  67973-4 0  9997
2 36827  98.4227 107.1553 0040488 324.8762  34.9761 14.44868974715714

Acompanhe PRISMA em tempo real com AllMySat

Download on the App Store